Vertical_Velocity
4 0 2 -3 -0 -0 -2 0 3 -14 -5 3 -1 -1 -4 -3 -5 -4 -2 -1 -2 -4 -4 -2 -1 1 0 3 1 -2 -1 -4 -3 -3 -2 0 2 -6 -9 -13 -4 -1 5 -4
-4 5 2 -4 0 1 -0 -4 9 -1 -9 -3 -1 -3 -4 -2 -3 -3 -2 -1 -1 -1 -1 -1 0 -3 -3 -2 0 -2 -2 -6 -5 -1 -1 -2 -0 -1 -3 -4 -14 -1 -12 -6
-8 1 10 1 -5 -1 3 0 6 -3 3 1 0 0 -3 0 -0 -2 -3 -4 -2 -3 -3 -2 -4 -6 -3 -2 -3 -2 -4 -0 2 1 -1 -4 1 4 0 -3 -4 -1 -9 -13
0 6 1 -7 0 -0 -1 1 1 -1 -0 -0 -0 1 -1 -4 -3 -2 -3 -2 1 -2 1 -0 -1 1 -0 -0 0 -3 1 5 7 5 3 2 -2 -4 5 -1 -2 2 -9 -18
0 -2 -1 -2 -4 -1 1 -0 0 0 -1 1 1 -3 -2 -1 -2 -3 -2 -1 -2 -4 -3 -1 -1 1 -1 0 1 3 3 1 3 1 5 6 6 2 -3 0 3 1 -4 7
3 -2 -3 -3 0 1 0 -3 2 0 1 1 -1 1 3 3 1 3 -0 -3 -1 -1 -2 -1 2 1 -2 1 0 2 4 5 10 1 6 1 7 7 0 -2 -4 6 2 -4
1 4 0 1 1 -0 3 -3 0 -0 1 -0 -1 -3 -0 -0 1 -3 -4 -1 1 0 -3 -4 -1 1 0 2 2 1 2 1 2 7 8 8 10 9 9 -2 -3 9 -3 6
2 -1 -1 -1 1 1 0 1 -0 0 0 -1 -1 -1 -1 -1 -1 -2 -0 1 2 1 0 -1 -0 3 2 1 1 2 1 8 11 1 1 5 12 7 -2 6 6 -1 17 -6
-0 0 0 -1 -1 0 1 0 -1 -0 0 1 -0 -1 -1 1 -0 -1 -2 -0 -2 -2 1 -0 1 1 5 2 -0 1 1 -1 -6 7 1 8 5 -1 6 11 17 15 3 5
-0 -1 0 -0 -0 0 1 0 0 1 1 1 -0 -1 -1 -0 0 0 -1 0 1 1 1 -0 0 0 1 1 2 3 2 7 -0 4 8 2 5 9 6 11 3 12 25 30
1 0 0 0 -0 -1 0 1 0 -1 -0 -1 -1 -1 -1 -1 0 -0 -1 -0 -1 -0 1 1 -1 -2 -0 1 4 0 3 6 3 5 3 -2 1 -3 6 -3 -1 10 -0 26
-0 0 1 -0 -0 -0 -0 0 -0 -0 -1 -1 -1 -1 0 -1 -1 0 1 0 1 -0 -1 1 2 0 1 0 1 -3 -3 3 4 2 -0 2 6 5 5 7 11 12 8 5
-0 -0 0 0 -0 -0 -0 -1 -1 -1 -1 0 -1 0 -1 0 0 0 -2 -1 -1 -1 0 -1 -0 2 1 0 0 3 2 2 4 7 6 -1 1 8 8 4 11 16 4 8
0 1 0 -1 -0 -1 -0 0 -1 -1 -1 -0 -0 -1 -1 -0 0 -1 -0 -1 -1 -0 -0 1 -0 0 1 2 -1 -2 -2 1 3 -4 2 12 5 4 12 4 -0 -9 -9 -2
0 -0 0 0 0 -1 -0 -0 -1 -1 -1 -1 -2 -0 -1 -1 -0 -0 -0 0 -2 -1 -2 -1 1 -0 -1 -2 1 -1 2 5 -1 -4 -1 0 1 7 1 6 1 1 2 -0
1 0 1 0 0 -0 -0 -0 0 -0 -1 -1 -0 -1 -0 -1 -1 -0 -1 -1 -1 2 1 0 -0 -1 -0 -0 -2 -1 1 1 2 5 4 1 -3 6 10 10 3 3 7 7
0 2 0 -0 -1 1 -0 -1 -1 -1 -1 -1 -1 -1 -0 2 -0 -1 -0 -1 -2 -3 -2 0 1 -0 -1 -0 -1 -0 -1 1 -1 1 4 6 8 9 3 10 -5 3 3 -1
-1 -1 -1 -1 -1 0 0 -1 -1 -0 -2 -1 -0 -1 -1 -1 -0 -0 -1 -0 1 -2 -3 -3 -2 -0 -1 -1 -1 -2 -2 -2 -0 1 -1 -2 1 1 -3 -4 -5 -1 -2 2
-1 -0 0 -1 -1 -1 -1 -0 -1 0 -0 -1 -0 0 -2 -2 -1 -0 -0 -1 0 1 0 -1 -2 -3 -0 -2 -0 0 -1 -1 -2 -2 -1 -2 -2 -2 -5 -3 0 2 -4 -3
-0 -1 -1 -0 -0 -1 1 -0 -0 0 -1 -1 -1 -1 0 -2 -3 -1 -1 -0 -2 -0 2 1 -0 -1 -1 -0 -2 -2 -0 -0 -2 -1 -3 -5 -2 -2 0 1 2 1 1 -1
-1 -0 -1 -1 1 1 -1 -1 -1 0 -0 -2 -2 -1 -2 1 -2 -2 -1 1 -2 -1 -2 -0 -0 -1 -3 -0 -2 -2 -3 -2 -0 -3 -4 -2 -3 -5 -4 0 0 -1 -0 -1
-0 0 1 -1 -1 2 -1 -1 -2 -1 -0 -0 -1 -1 -2 0 0 0 -4 -4 2 -0 -2 1 0 0 -7 0 -3 -2 -2 -2 -4 -2 -1 -2 -2 0 1 -3 -6 -3 -2 -4
-1 -2 -1 -2 -2 -0 1 -1 -0 -2 -1 -0 0 -0 -1 -1 -1 -2 4 -3 -3 0 -4 1 1 0 -7 -1 1 -1 -0 -0 -0 -0 0 0 0 -1 -4 -4 -2 -1 -1 -1
-0 0 -1 -1 -1 -1 -0 1 -0 -1 -2 -0 0 -1 -1 0 5 -6 -3 -1 0 -1 -1 -0 -0 2 -9 1 0 -3 -3 -2 -0 -0 -1 -1 -1 -1 -2 -1 0 1 -0 -0
-2 -1 -2 -2 -1 1 -0 0 2 -0 -0 -0 -1 -0 -2 -2 -2 4 -2 -2 -2 -2 -1 1 -2 -2 0 -0 -1 -1 -2 -2 -3 -1 -0 1 -1 -1 0 1 -0 0 -2 -1
-0 -0 -1 -1 -1 -2 -2 -1 -3 -0 -3 -2 3 1 -1 -1 0 -2 -1 -1 -1 -1 -1 -1 -2 -2 -1 -1 -2 1 -0 -1 -0 -1 -1 -2 -1 0 -0 0 -2 -2 -2 -1
1 -2 -1 1 1 -1 -1 -1 -3 1 1 -1 -2 1 -1 1 2 -0 -1 0 -0 -1 -1 -1 -2 -1 -1 -1 -2 -1 -1 -2 -1 -1 -1 -1 -0 0 0 0 1 -0 0 -0
Height
3011 3013 3013 3014 3014 3013 3013 3011 3010 3007 3005 3005 3003 3000 2997 2994 2989 2984 2979 2974 2967 2960 2955 2949 2943 2938 2932 2926 2920 2914 2910 2905 2900 2896 2894 2894 2898 2906 2915 2925 2935 2948 2956 2965
3005 3007 3007 3007 3007 3006 3006 3003 3002 3003 3000 3000 2998 2995 2992 2989 2985 2980 2975 2969 2962 2957 2951 2944 2938 2932 2926 2920 2914 2909 2903 2898 2892 2887 2884 2882 2883 2890 2898 2909 2920 2931 2940 2951
2999 3002 3002 3002 2999 2999 2998 2997 2998 2998 2997 2995 2994 2992 2988 2985 2981 2976 2970 2964 2958 2952 2946 2940 2934 2928 2921 2915 2909 2904 2898 2892 2886 2880 2875 2872 2871 2875 2882 2893 2903 2915 2927 2940
2992 2994 2997 2993 2993 2993 2993 2992 2993 2992 2991 2991 2989 2988 2984 2980 2976 2972 2967 2961 2955 2949 2943 2938 2932 2925 2919 2912 2906 2900 2894 2887 2881 2874 2867 2863 2860 2863 2868 2877 2888 2898 2912 2923
2986 2989 2990 2989 2989 2989 2988 2989 2988 2987 2988 2987 2985 2983 2980 2977 2973 2968 2963 2957 2952 2946 2940 2935 2928 2922 2916 2909 2903 2896 2890 2883 2876 2868 2862 2857 2853 2853 2856 2862 2873 2884 2897 2908
2984 2985 2988 2984 2985 2985 2985 2985 2982 2983 2983 2983 2982 2980 2978 2974 2970 2966 2961 2955 2949 2944 2938 2933 2927 2920 2913 2907 2900 2893 2886 2879 2872 2865 2859 2854 2849 2847 2848 2853 2862 2871 2883 2894
2980 2981 2983 2982 2983 2983 2986 2986 2981 2981 2980 2980 2978 2976 2973 2969 2966 2962 2957 2953 2948 2942 2936 2930 2925 2918 2912 2905 2898 2891 2884 2878 2872 2866 2860 2854 2848 2844 2844 2846 2853 2860 2871 2881
2977 2979 2982 2980 2981 2984 2982 2980 2980 2978 2978 2976 2974 2972 2969 2965 2962 2959 2956 2951 2946 2941 2935 2929 2923 2917 2911 2904 2897 2891 2884 2878 2871 2865 2861 2856 2849 2844 2842 2843 2847 2852 2861 2871
2979 2978 2978 2978 2978 2979 2978 2978 2977 2976 2974 2973 2971 2969 2965 2962 2959 2956 2953 2949 2944 2939 2934 2928 2923 2916 2910 2904 2897 2891 2885 2879 2873 2867 2862 2858 2852 2848 2844 2844 2843 2845 2853 2862
2978 2976 2976 2976 2976 2976 2976 2975 2974 2973 2971 2970 2968 2965 2962 2959 2956 2953 2950 2946 2942 2938 2933 2927 2922 2916 2910 2904 2898 2893 2887 2881 2874 2869 2864 2860 2855 2850 2848 2843 2844 2847 2845 2852
2975 2975 2976 2975 2975 2974 2974 2973 2971 2970 2968 2966 2964 2961 2958 2955 2953 2950 2947 2943 2940 2935 2931 2926 2921 2916 2911 2905 2899 2894 2889 2884 2878 2873 2866 2863 2858 2854 2849 2846 2847 2845 2843 2844
2974 2975 2974 2973 2972 2972 2971 2970 2968 2967 2965 2962 2960 2958 2955 2952 2949 2947 2944 2941 2938 2934 2930 2926 2922 2917 2912 2906 2901 2896 2891 2886 2880 2876 2872 2868 2864 2859 2856 2853 2851 2847 2847 2846
2974 2973 2972 2971 2970 2969 2968 2967 2965 2964 2962 2960 2957 2954 2952 2949 2946 2944 2941 2938 2935 2932 2929 2925 2921 2917 2912 2908 2903 2897 2892 2888 2884 2881 2876 2872 2868 2863 2860 2857 2854 2851 2848 2848
2972 2971 2970 2969 2967 2966 2965 2963 2961 2960 2958 2956 2954 2951 2949 2946 2944 2941 2939 2936 2933 2930 2927 2924 2920 2916 2912 2908 2905 2901 2896 2891 2886 2882 2878 2873 2871 2868 2864 2861 2858 2857 2858 2859
2970 2969 2967 2966 2964 2963 2961 2959 2958 2956 2955 2952 2950 2948 2946 2943 2941 2938 2936 2933 2931 2928 2925 2922 2919 2916 2913 2910 2906 2902 2899 2894 2889 2885 2881 2877 2876 2872 2870 2868 2866 2866 2866 2866
2968 2966 2964 2963 2961 2959 2958 2956 2954 2953 2951 2948 2946 2944 2942 2939 2937 2935 2932 2930 2928 2926 2923 2921 2918 2915 2912 2909 2906 2903 2900 2896 2893 2890 2887 2883 2879 2876 2874 2872 2869 2868 2868 2866
2965 2963 2961 2959 2957 2955 2953 2951 2949 2948 2946 2944 2942 2940 2938 2935 2933 2931 2929 2926 2924 2922 2920 2919 2916 2913 2910 2908 2906 2903 2900 2897 2894 2891 2888 2885 2883 2881 2877 2872 2871 2869 2869 2870
2961 2959 2957 2955 2953 2951 2949 2947 2945 2943 2941 2940 2937 2935 2933 2931 2929 2927 2925 2923 2921 2919 2917 2915 2913 2912 2909 2907 2904 2902 2899 2897 2895 2892 2889 2886 2883 2881 2880 2879 2879 2877 2876 2875
2958 2956 2954 2952 2949 2947 2945 2943 2941 2939 2936 2935 2933 2931 2929 2927 2925 2923 2921 2919 2917 2916 2914 2912 2910 2908 2907 2904 2902 2900 2898 2897 2895 2893 2891 2889 2886 2885 2885 2884 2883 2882 2881 2880
2955 2952 2950 2948 2945 2942 2940 2938 2936 2934 2931 2930 2928 2926 2924 2922 2920 2919 2917 2915 2913 2912 2910 2909 2907 2905 2904 2902 2900 2899 2897 2896 2894 2893 2892 2891 2890 2888 2887 2886 2885 2885 2885 2884
2951 2949 2946 2943 2941 2938 2935 2933 2931 2929 2927 2924 2923 2921 2919 2918 2915 2914 2912 2911 2909 2907 2905 2905 2903 2902 2900 2899 2897 2896 2895 2894 2893 2892 2892 2891 2891 2890 2889 2888 2887 2886 2887 2887
2947 2944 2941 2939 2936 2934 2931 2928 2926 2924 2922 2919 2917 2915 2913 2912 2910 2908 2906 2905 2904 2903 2901 2900 2899 2898 2895 2896 2895 2893 2893 2892 2892 2891 2891 2891 2890 2890 2889 2890 2890 2888 2887 2887
2943 2940 2937 2934 2931 2928 2926 2923 2920 2918 2916 2913 2911 2909 2907 2906 2904 2902 2902 2899 2898 2897 2896 2895 2894 2892 2890 2891 2891 2890 2889 2889 2889 2889 2889 2888 2888 2888 2888 2888 2888 2887 2887 2888
2939 2936 2932 2929 2926 2923 2920 2918 2915 2912 2909 2907 2905 2903 2901 2899 2899 2896 2895 2893 2893 2892 2890 2890 2889 2888 2886 2886 2886 2885 2885 2885 2885 2885 2885 2885 2885 2886 2886 2886 2886 2886 2886 2886
2933 2930 2926 2923 2920 2917 2914 2912 2909 2906 2904 2901 2899 2897 2894 2892 2891 2891 2889 2887 2886 2885 2885 2884 2882 2882 2882 2881 2880 2880 2880 2880 2881 2881 2881 2881 2882 2883 2883 2883 2884 2884 2885 2885
2928 2924 2920 2917 2913 2910 2907 2904 2901 2899 2896 2894 2893 2890 2888 2886 2885 2883 2882 2881 2880 2879 2878 2877 2876 2875 2875 2875 2875 2875 2874 2875 2875 2876 2877 2877 2878 2879 2880 2880 2881 2882 2883 2883
2924 2919 2915 2912 2908 2903 2900 2896 2893 2890 2888 2885 2883 2882 2880 2879 2878 2876 2875 2874 2873 2872 2871 2870 2869 2868 2868 2868 2868 2868 2868 2869 2870 2870 2871 2872 2873 2874 2875 2877 2878 2879 2880 2880